Regional Weather Roundup
Issued by NWS

Home | Current Version | Previous Version | Text Only | Print | Product List | Glossary Off
Versions: 1 2 3 4 5 6 7 8 9 10 11 12 13 14 15 16 17 18 19 20 21 22 23 24 25 26 27 28 29 30 31 32 33 34 35 36 37 38 39 40 41 42 43 44 45 46 47 48 49 50

000
ASUS43 KMPX 270001
RWRMN
WEATHER ROUNDUP FOR MINNESOTA
NATIONAL WEATHER SERVICE TWIN CITIES/CHANHASSEN MN
700 PM CDT TUE MAY 26 2015


NOTE: "FAIR" INDICATES FEW OR NO CLOUDS BELOW 12,000 FEET WITH NO
SIGNIFICANT WEATHER AND/OR OBSTRUCTIONS TO VISIBILITY. N/A MEANS
CURRENT SKY AND/OR WEATHER CONDITIONS ARE NOT AVAILABLE.

MNZ060>063-068>070-270100-
   Twin Cities Metro

CITY           SKY/WX    TMP DP  RH WIND       PRES   REMARKS
TWIN CITIES    LGT RAIN  59  57  93 N7        29.76S
6HR MIN TEMP:  57; 6HR MAX TEMP:  59; 6HR PCP:  0.44;

ST PAUL        LGT RAIN  58  57  97 NW5       29.76S
CRYSTAL        LGT RAIN  58  56  93 N9        29.76R
BLAINE         LGT RAIN  59  57  94 N7        29.77S
LAKEVILLE      LGT RAIN  57  55  94 N7        29.76S
EDEN PRAIRIE   LGT RAIN  58  56  93 NW6       29.76S
6HR MIN TEMP:  58; 6HR MAX TEMP:  59; 6HR PCP:  0.62;

SOUTH ST PAUL  LGT RAIN  58  57  97 N3        29.76S
LAKE ELMO      LGT RAIN  57  55  94 N5        29.76S
$$
MNZ001>005-007-008-013>017-022>024-027-028-270100-
   Northwest Minnesota

CITY           SKY/WX    TMP DP  RH WIND       PRES   REMARKS
BEMIDJI        CLOUDY    72  52  49 S6        29.77F
HALLOCK        PTSUNNY   82  43  24 CALM      29.71S
ROSEAU         MOSUNNY   77  48  36 S10       29.73S
WARROAD        PTSUNNY   79  54  41 W5        29.73F HAZE
THIEF RVR FALL PTSUNNY   81  46  30 SW7       29.74F
CROOKSTON      MOSUNNY   77  59  53 S12       29.74S
FOSSTON        PTSUNNY   73  54  49 SW10      29.77F
DETROIT LAKES  CLOUDY    72  50  46 W3        29.80S
MOORHEAD       CLOUDY    73  55  53 S7        29.77S
PARK RAPIDS    CLOUDY    73  49  42 CALM      29.78S
MAHNOMEN       FAIR      73  56  53 SW10      29.78S
$$
MNZ006-009>011-018-025>026-270100-
   North Central Minnesota

CITY           SKY/WX    TMP DP  RH WIND       PRES   REMARKS
BAUDETTE       PTSUNNY   76  52  43 SW8       29.73F
FLAG ISLAND    LGT RAIN  66  55  68 S5        29.72F
INTL FALLS     PTSUNNY   75  50  41 SW3       29.74F
6HR MIN TEMP:  71; 6HR MAX TEMP:  77;

WASKISH        PTSUNNY   73  54  49 CALM      29.75F
BIG FORK       CLOUDY    72  55  56 S3        29.78S
LONGVILLE      CLOUDY    70  54  56 CALM      29.78F
GRAND RAPIDS   CLOUDY    66  52  59 S6        29.79F
CRANE LAKE     CLOUDY    70  52  52 CALM      29.78F
COOK           CLOUDY    70  52  52 CALM      29.78F
WALKER         FAIR      69  51  51 CALM      29.78F
$$
MNZ012-019>021-037-270100-
   Northeast Minnesota

CITY           SKY/WX    TMP DP  RH WIND       PRES   REMARKS
DULUTH         CLOUDY    59  51  75 NE7       29.79F
6HR MIN TEMP:  58; 6HR MAX TEMP:  64;

HIBBING        CLOUDY    66  50  56 S3        29.78F
EVELETH        CLOUDY    64  50  59 CALM      29.80S
DULUTH HARBOR  CLOUDY    52  48  87 E6        29.79F
TWO HARBORS    CLOUDY    61  54  77 N3        29.77F
GRAND MARAIS     N/A     53  49  86 CALM      29.78F
G MARAIS ARPRT CLOUDY    55  48  76 CALM      29.81F
$$
MNZ029>031-032-039>041-046>048-054>057-064-270100-
   West Central Minnesota

CITY           SKY/WX    TMP DP  RH WIND       PRES   REMARKS
FERGUS FALLS   CLOUDY    72  55  56 W6        29.78F
WHEATON        CLOUDY    70  54  56 SE3       29.81S
MORRIS         CLOUDY    72  55  56 NW3       29.79S
ALEXANDRIA     CLOUDY    67  51  56 SE5       29.81F
ELBOW LAKE     FAIR      70  53  55 CALM      29.79S
WADENA         CLOUDY    70  52  52 CALM      29.79S
GLENWOOD       CLOUDY    66  54  63 NE3       29.81S
APPLETON       CLOUDY    72  54  53 NE3       29.79F
BENSON         CLOUDY    70  52  52 E3        29.80S
ORTONVILLE     CLOUDY    70  54  56 W5        29.80F
MADISON        CLOUDY    70  54  56 N3        29.80F
WILLMAR        FAIR      63  57  82 CALM      29.82S
$$
MNZ033>034-036-042>043-049>051-058-059-270100-
   Central Minnesota

CITY           SKY/WX    TMP DP  RH WIND       PRES   REMARKS
ST CLOUD       CLOUDY    61  55  81 NW3       29.78F
6HR MIN TEMP:  59; 6HR MAX TEMP:  61; 6HR PCP: TRACE;

SAUK CENTRE    FAIR      64  56  76 CALM      29.80F
PAYNESVILLE    CLOUDY    59  55  84 CALM      29.80S
AITKIN         CLOUDY    66  54  63 CALM      29.78S
PINE RIVER     CLOUDY    66  57  72 SE5       29.82F
BRAINERD       CLOUDY    66  53  63 CALM      29.79F
STAPLES        CLOUDY    66  54  63 SE3       29.79S
LONG PRAIRIE   FAIR      64  54  68 CALM      29.80F
LITTLE FALLS   CLOUDY    63  54  72 CALM      29.79F
LITCHFIELD     CLOUDY    61  59  94 CALM      29.80S
BUFFALO        CLOUDY    58  55  88 CALM      29.79S
MAPLE LAKE     CLOUDY    60  58  93 CALM      29.80S
$$
MNZ037-044-045-052-053-270100-
   East Central Minnesota

CITY           SKY/WX    TMP DP  RH WIND       PRES   REMARKS
PRINCETON      CLOUDY    63  55  77 NW5       29.78S
MORA           CLOUDY    61  52  72 N5        29.79S
CAMBRIDGE      CLOUDY    61  52  72 CALM      29.75F
RUSH CITY      CLOUDY    58  55  91 N5        29.77S
MOOSE LAKE     CLOUDY    59  55  88 NE8       29.77S
HINCKLEY       FAIR      61  54  77 N7        29.77S
CLOQUET        CLOUDY    61  50  67 NE6       29.78F
MCGREGOR       CLOUDY    63  54  72 CALM      29.79F
$$
MNZ071>073-080-081-089-090-097-098-270100-
   Southwest Minnesota

CITY           SKY/WX    TMP DP  RH WIND       PRES   REMARKS
MONTEVIDEO     CLOUDY    66  57  72 CALM      29.81S
GRANITE FALLS  CLOUDY    63  56  78 CALM      29.82S
CANBY          CLOUDY    67  55  66 NW7       29.82S
MARSHALL       CLOUDY    63  54  72 CALM      29.81S
REDWOOD FALLS  CLOUDY    61  57  87 CALM      29.80F
OLIVIA         CLOUDY    59  52  77 N5        29.80S
PIPESTONE      CLOUDY    66  54  63 N8        29.82F
WINDOM         CLOUDY    59  55  88 N5        29.82S
WORTHINGTON    CLOUDY    61  54  77 N9        29.82F
JACKSON        CLOUDY    59  55  88 NW7       29.82S
TRACY          CLOUDY    62  57  83 N5        29.82S
SLAYTON        CLOUDY    61  57  88 CALM      29.83S
$$
MNZ065>067-074>077-082>085-091>093-270100-
   South Central Minnesota

CITY           SKY/WX    TMP DP  RH WIND       PRES   REMARKS
MANKATO        CLOUDY    57  55  94 NW7       29.79S
NEW ULM        LGT RAIN  57  57 100 NW3       29.80S
ST JAMES       LGT RAIN  59  57  94 NW6       29.81S
FAIRMONT       CLOUDY    57  52  82 NW8       29.80S
GLENCOE        DRIZZLE   59  58  98 NW5       29.78F
FARIBAULT      LGT RAIN  57  57 100 NW5       29.78R
OWATONNA       LGT RAIN  59  55  88 NW9       29.78R
WASECA         RAIN      55  54  94 NW6       29.79S
ALBERT LEA     CLOUDY    61  57  88 NW7       29.78R
$$
MNZ078>079-086>088-094>096-270100-
   Southeast Minnesota

CITY           SKY/WX    TMP DP  RH WIND       PRES   REMARKS
ROCHESTER      LGT RAIN  60  58  92 NW14      29.77R FOG
6HR MIN TEMP:  60; 6HR MAX TEMP:  64; 6HR PCP:  0.47;

RED WING       DRIZZLE   61  59  94 NW7       29.73S
STANTON        CLOUDY    60  57  89 NW7       29.75S
DODGE CENTER   RAIN      61  57  88 W9        29.77R
WINONA         RAIN      61  59  94 NW8       29.71R
AUSTIN         CLOUDY    61  57  88 NW10      29.77R
PRESTON        CLOUDY    61  57  88 NW15G22   29.76R
$$
ABBREVIATIONS USED IN REMARKS
   TC - TEMPERATURES IN CELSIUS
  WCI - WIND CHILL INDEX
   HX - HEAT INDEX
  VSB - VISIBILITY
$$



USA.gov is the U.S. government's official web portal to all federal, state and local government web resources and services.